Flag for Switzerland Weather past 2 weeks in Sion, Valais, Switzerland

Now
69 °F

Mild.


Feels Like: 69 °F
Forecast: 57 / 76 °F
Wind: 3 mph from Southwest

Location: Sion

Current Time: Jul 26, 2014 at 7:49:51 PM

Latest Report: Jul 26, 2014 at 7:00 PM


Visibility: N/A

Pressure: 29.93 "Hg

Humidity: 69%

Dew point: 58 °F

Location of SionLocation

Historic Weather in Sion — Graph

°F

Sion temperature yesterday

Maximum temperature yesterday: 83 °F (at 4:00 PM)
Minimum temperature yesterday: 56 °F (at 5:00 AM)
Average temperature yesterday: 68 °F

Past Weeks' High & Low Weather Summary

 TemperatureHumidityPressure
High92 °F (Jul 18, 4:00 PM)98% (Jul 21, 6:00 AM)30.20 "Hg (Jul 21, 6:00 AM)
Low56 °F (Jul 25, 5:00 AM)26% (Jul 18, 4:00 PM)29.74 "Hg (Jul 23, 3:00 PM)
Average69 °F70%29.95 "Hg
* Reported Jul 11 6:00 PM — Jul 26 6:00 PM, Sion, Weather by CustomWeather, © 2014

Note: Actual official high and low records may vary slightly from our data, if they occured in-between our weather recording intervals... More about our weather records

Advertising

Sion weather history for previous 24 hours

 ConditionsComfort  
Time TempWeatherWind HumidityBarometerVisibility
6:00 PM
Jul 26
68 °FMild.3 mph75%29.93 "HgN/A
5:00 PM66 °FMild.2 mph76%29.95 "HgN/A
4:00 PM65 °FMild.2 mph79%29.95 "HgN/A
3:00 PM65 °FMild.1 mph81%29.96 "HgN/A
2:00 PM64 °FLight rain. Overcast.6 mph83%29.96 "Hg6 mi
1:00 PM64 °FMild.3 mph86%29.95 "HgN/A
12:00 PM63 °FMild.7 mph91%29.96 "HgN/A
11:00 AM62 °FLight rain. Overcast.2 mph92%29.96 "Hg6 mi
10:00 AM62 °FCool.5 mph92%29.96 "HgN/A
9:00 AM61 °FCool.1 mph95%29.96 "HgN/A
8:00 AM61 °FLight rain. Overcast.2 mph94%29.96 "Hg6 mi
7:00 AM61 °FCool.2 mph94%29.96 "HgN/A
6:00 AM61 °FCool.1 mph95%29.95 "HgN/A
5:00 AM62 °FLight rain. Overcast.1 mph93%29.94 "Hg6 mi
4:00 AM62 °FCool.1 mph93%29.93 "HgN/A
3:00 AM63 °FMild.3 mph90%29.93 "HgN/A
2:00 AM62 °FRain. Overcast.1 mph92%29.93 "Hg6 mi
1:00 AM63 °FMild.2 mph90%29.93 "HgN/A
12:00 AM64 °FMild.6 mph84%29.91 "HgN/A
11:00 PM
Jul 25
65 °FOvercast.5 mph79%29.88 "Hg12 mi
10:00 PM72 °FMild.10 mph45%29.84 "HgN/A
9:00 PM73 °FMild.7 mph44%29.80 "HgN/A
8:00 PM77 °FOvercast.12 mph38%29.78 "Hg19 mi
7:00 PM79 °FWarm.8 mph40%29.77 "HgN/A
Weather by CustomWeather, © 2014

See weather overviewHow to use our weather pages